Location: Newark
(41.8083°N, 72.2500°W)
Time: 20:12:47
(UTC+00:00)

Courier 1B - Pass Details

Date: 05 December 2021
Orbit: 962 x 1209 km, 28.3° (Epoch: 19 January)

Event Time Altitude Azimuth Distance (km) Brightness Sun altitude
Rises 19:54:43 0° 218° (SW) 4,085 12.8 11.5°
Reaches altitude 10° 19:58:36 10° 201° (SSW) 3,099 11.6 11.0°
Maximum altitude 20:03:31 18° 161° (SSE) 2,485 10.1 10.3°
Drops below altitude 10° 20:08:18 10° 121° (ESE) 3,008 9.9 9.7°
Sets 20:11:59 0° 104° (ESE) 3,922 10.3 9.2°
